INSAT 3E

Satellite information

Favourite Embed

Satellite Type and Status

PAYLOADIN ORBIT

Key statistics

Satellite INSAT 3E at a glance.

Uptime

7897

Days in orbit

Revolutions

≈ 1.0

Per day

Orbit

OTHER

Other

Inclination

8.8

Latest

Satellite identification and parameters

Extended collection of information and parameters for INSAT 3E.

Object identification

Identified? True

Debris? False

Object name: INSAT 3E

International designator: 2003-043E

Object number (NORAD): 27951

Object ID (CCSDS): 27951

Country: INDIA (IND)

Current information (Y/N): Y

RCS size: LARGE

Orbital parameters

Period: 1428.485 minutes

Inclination: 8.7971 deg

SMA: 42015.614 km

Apoapsis: 35691.326 km

Periapsis: 35583.631 km

RAAN: 58.0864 deg

Eccentricy: 0.0012816

Argument of periapsis: 244.5038 deg

Mean anomaly: 20.6229 deg

Mean motion: 1.00806073 rev/day

Mean motion (dot): 0.00000012 rev/day2

B* drag term: 0.0 1/REarth

Two-line elements (TLE)

Creation date: May 10, 2025, 10:26 p.m.

Reference frame: TEME

Reference center: EARTH

Epoch: May 10, 2025, 3:09 p.m. UTC

TLE line 0: 0 INSAT 3E

TLE line 1: 1 27951U 03043E 25130.63181160 .00000012 00000-0 00000+0 0 9993

TLE line 2: 2 27951 8.7971 58.0864 0012816 244.5038 20.6229 1.00806073 79397

Live tracking on map

Real-time ground track for satellite INSAT 3E.

In-orbit conjunctions

There are no conjunctions computed for INSAT 3E, at the moment. Check back to stay up to date, as we update our databases every day.

Go to all conjunctions

Associated space launch

INSAT-3A is a multipurpose satellite for providing telecommunications, television broadcasting, meteorological and search & rescue services. INSAT-3A payloads include Normal C-band transponders with expanded coverage from Middle East to South East Asia, Extended C-band transponders providing India coverage and Ku-band transponders providing India coverage. The satellite also carries one Data Relay Transponder (DRT) and one Satellite Aided Search and Rescue (SAS&R) payload. SAS&R payload has a global receive coverage with 406 MHz uplink and C-band downlink with India coverage for the relay of signals from distress beacons in sea, air or land.

INSAT 3E was lifted into orbit during the mission ‘Ariane 5 G | INSAT-3E, eBird 1, SMART-1’, on board a Ariane 5 G space rocket.

The launch took place on Sept. 27, 2003, 11:14 p.m. from Ariane Launch Area 3.

For more information about the launch, click the button.

Launch to space Ariane 5 G | INSAT-3E, eBird 1, SMART-1
Ariane 5 G | INSAT-3E, eBird 1, SMART-1

Agency: N/A

Status: Launch Successful

Launch date: Sept. 27, 2003, 11:14 p.m. UTC

Rocket: Ariane 5 G

Launch pad: Ariane Launch Area 3

Location: Guiana Space Centre, French Guiana

...

Latest news about this satellite

There are no fresh news available about this satellite. Check back as we update our databases every day.


Newsletter sign-up

Weekly statistics, charts and insights to help you stay on top of the space industry.